TimeEDT,TemperatureF,Dew PointF,Humidity,Sea Level PressureIn,VisibilityMPH,Wind Direction,Wind SpeedMPH,Gust SpeedMPH,PrecipitationIn,Events,Conditions,WindDirDegrees,DateUTC
12:56 AM,52.0,45.0,77,29.87,10.0,ESE,21.9,26.5,N/A,,Overcast,110,2013-04-12 04:56:00
1:53 AM,51.8,44.6,76,29.84,10.0,ESE,16.1,28.8,N/A,,Overcast,110,2013-04-12 05:53:00
1:56 AM,51.1,44.1,77,29.84,10.0,ESE,17.3,28.8,N/A,,Overcast,110,2013-04-12 05:56:00
2:56 AM,50.0,44.1,80,29.83,10.0,ESE,18.4,-,N/A,,Overcast,110,2013-04-12 06:56:00
3:56 AM,48.9,44.1,83,29.81,10.0,East,19.6,24.2,N/A,,Overcast,100,2013-04-12 07:56:00
4:56 AM,48.0,44.1,86,29.77,10.0,ESE,20.7,26.5,N/A,,Overcast,110,2013-04-12 08:56:00
5:56 AM,48.0,44.1,86,29.75,10.0,ESE,12.7,-,0.00,Rain,Light Rain,110,2013-04-12 09:56:00
6:56 AM,46.9,45.0,93,29.72,3.0,ESE,19.6,25.3,0.05,Rain,Rain,110,2013-04-12 10:56:00
7:11 AM,46.4,44.6,93,29.72,4.0,ESE,17.3,27.6,0.01,Rain-Thunderstorm,Light Thunderstorms and Rain,120,2013-04-12 11:11:00
7:36 AM,46.4,44.6,93,29.70,8.0,ESE,16.1,-,0.06,Rain,Light Rain,110,2013-04-12 11:36:00
7:56 AM,46.0,44.1,93,29.74,2.0,ESE,13.8,23.0,0.07,Rain-Thunderstorm,Thunderstorms and Rain,120,2013-04-12 11:56:00
8:22 AM,46.4,44.6,93,29.75,1.0,Variable,5.8,32.2,0.23,Rain-Thunderstorm,Heavy Thunderstorms and Rain,0,2013-04-12 12:22:00
8:40 AM,46.4,44.6,93,29.77,3.0,East,8.1,-,0.33,Rain,Rain,80,2013-04-12 12:40:00
8:56 AM,46.9,44.1,90,29.78,7.0,East,8.1,-,0.35,Rain,Light Rain,90,2013-04-12 12:56:00
9:10 AM,46.4,44.6,93,29.75,4.0,East,11.5,-,0.01,Rain,Rain,90,2013-04-12 13:10:00
9:28 AM,46.4,44.6,93,29.71,7.0,East,12.7,-,0.03,Rain,Light Rain,90,2013-04-12 13:28:00
9:56 AM,46.9,44.1,90,29.72,10.0,East,11.5,-,0.05,Rain,Light Rain,90,2013-04-12 13:56:00
10:56 AM,48.0,44.1,86,29.73,10.0,ESE,10.4,-,0.00,,Overcast,110,2013-04-12 14:56:00
11:56 AM,48.0,44.1,86,29.71,10.0,East,15.0,-,N/A,,Overcast,100,2013-04-12 15:56:00
12:56 PM,48.9,45.0,86,29.71,10.0,ESE,11.5,-,N/A,,Overcast,110,2013-04-12 16:56:00
1:56 PM,48.9,46.0,90,29.69,6.0,ESE,9.2,-,N/A,,Overcast,120,2013-04-12 17:56:00
2:56 PM,48.9,46.0,90,29.67,3.0,ESE,10.4,-,N/A,,Overcast,110,2013-04-12 18:56:00
3:56 PM,48.9,46.0,90,29.67,4.0,East,5.8,-,N/A,,Overcast,80,2013-04-12 19:56:00
4:56 PM,48.0,45.0,89,29.67,4.0,ENE,8.1,-,N/A,,Overcast,60,2013-04-12 20:56:00
5:56 PM,46.9,45.0,93,29.68,3.0,NE,6.9,-,N/A,,Overcast,40,2013-04-12 21:56:00
6:56 PM,46.0,44.1,93,29.68,4.0,East,9.2,-,0.00,Rain,Light Rain,80,2013-04-12 22:56:00
7:56 PM,46.0,44.1,93,29.68,3.0,ENE,6.9,-,0.00,,Overcast,70,2013-04-12 23:56:00
8:56 PM,46.0,44.1,93,29.71,3.0,North,4.6,-,N/A,,Overcast,360,2013-04-13 00:56:00
9:56 PM,46.0,43.0,89,29.76,3.0,North,5.8,-,N/A,,Overcast,360,2013-04-13 01:56:00
10:56 PM,46.0,44.1,93,29.78,4.0,NNW,3.5,-,N/A,,Overcast,340,2013-04-13 02:56:00
11:56 PM,46.9,45.0,93,29.81,4.0,NNW,8.1,-,N/A,,Overcast,330,2013-04-13 03:56:00